This is the latest recevied weather packets stored in our database for station/object AC2VK-1. If no packets are shown the sender has not sent any weather packets the latest 10 day(s).
| Time | Temp. | Humidity | Pressure | Rain* | Wind** | Luminosity | Snow |
|---|---|---|---|---|---|---|---|
| 1777588770 | 18.89° C | 45% | 1015 hPa | 0 mm | - | - | - |
| 1777588170 | 19.44° C | 45% | 1015.1 hPa | 0 mm | - | - | - |
| 1777587570 | 18.89° C | 45% | 1015 hPa | 0 mm | - | - | - |
| 1777586970 | 18.89° C | 47% | 1015 hPa | 0 mm | - | - | - |
| 1777586371 | 18.33° C | 45% | 1014.9 hPa | 0 mm | - | - | - |
| 1777585771 | 18.33° C | 46% | 1014.7 hPa | 0 mm | - | - | - |
| 1777585171 | 18.89° C | 43% | 1014.7 hPa | 0 mm | - | - | - |
| 1777584571 | 18.89° C | 46% | 1014.6 hPa | 0 mm | - | - | - |
| 1777583971 | 19.44° C | 44% | 1014.7 hPa | 0 mm | - | - | - |
| 1777583371 | 19.44° C | 45% | 1014.8 hPa | 0 mm | - | - | - |
| 1777582771 | 19.44° C | 43% | 1014.9 hPa | 0 mm | - | - | - |
| 1777582171 | 19.44° C | 39% | 1014.9 hPa | 0 mm | - | - | - |
| 1777581571 | 18.89° C | 42% | 1015 hPa | 0 mm | - | - | - |
| 1777580973 | 19.44° C | 46% | 1015.2 hPa | 0 mm | - | - | - |
| 1777580371 | 18.89° C | 47% | 1015.4 hPa | 0 mm | - | - | - |
| 1777579771 | 18.33° C | 45% | 1015.5 hPa | 0 mm | - | - | - |
| 1777579171 | 18.33° C | 46% | 1015.6 hPa | 0 mm | - | - | - |
| 1777578571 | 18.33° C | 45% | 1015.8 hPa | 0 mm | - | - | - |
| 1777577971 | 18.33° C | 44% | 1015.7 hPa | 0 mm | - | - | - |
| 1777577371 | 18.33° C | 42% | 1015.7 hPa | 0 mm | - | - | - |
| 1777576771 | 18.33° C | 42% | 1015.5 hPa | 0 mm | - | - | - |
| 1777576171 | 19.44° C | 52% | 1015.4 hPa | 0 mm | - | - | - |
| 1777575571 | 18.33° C | 51% | 1015.3 hPa | 0 mm | - | - | - |
| 1777574971 | 18.33° C | 52% | 1015.5 hPa | 0 mm | - | - | - |
| 1777574371 | 18.33° C | 52% | 1015.3 hPa | 0 mm | - | - | - |
* Rain latest hour (hover to see other rain measurements)
** Current wind speed in m/s (hover to see current wind gust speed)